Grand Rapids, MI

4:48 AM EDT on May 30, 2017 (GMT -0400)
Gerald R. Ford International

Weather History for KGRR - April, 2013

Change the Weather History Date:

Friday, April 5, 2013

  Actual Average Record
Temperature  
Mean Temperature 41 °F 44 °F  
Max Temperature 50 °F 54 °F 81 °F (1988)
Min Temperature 32 °F 34 °F 12 °F (1995)
Degree Days  
Heating Degree Days 24 21  
Month to date heating degree days 150 111  
Since 1 July heating degree days 5663 5798  
Cooling Degree Days 0 0  
Month to date cooling degree days 0 0  
Year to date cooling degree days 0 1  
Moisture  
Dew Point 21 °F    
Average Humidity 47    
Maximum Humidity 69    
Minimum Humidity 24    
Precipitation  
Precipitation 0.00 in 0.10 in 1.87 in (1947)
Month to date precipitation T 0.51  
Year to date precipitation 8.00 6.76  
Snow  
Snow 0.00 in 0.10 in 8.60 in (1952)
Month to date snowfall T 0.7  
Since 1 July snowfall 65.3 73.8  
Snow Depth 0.00 in    
Sea Level Pressure  
Sea Level Pressure 30.14 in    
Wind  
Wind Speed 9 mph (NNW)    
Max Wind Speed 16 mph    
Max Gust Speed 23 mph    
Visibility 10 miles    
Events      
T = Trace of Precipitation, MM = Missing Value Source: NWS Daily Summary

Daily Weather History Graph

Daily Weather History Graph

Search for Another Location

Airport or City:

Trip Planner

Search our weather history database for the weather conditions in past years. The results will help you decide how hot, cold, wet, or windy it might be!

Date:

Astronomy

Apr. 05, 2013 Rise Set
Actual Time 7:16 AM EDT 8:13 PM EDT
Civil Twilight 6:48 AM EDT 8:42 PM EDT
Nautical Twilight 6:13 AM EDT 9:16 PM EDT
Astronomical Twilight 5:38 AM EDT 9:52 PM EDT
Moon 4:30 AM EDT (4/5) 3:30 PM EDT (4/5)
Length of Visible Light 13h 54m
Length of Day
12h 56m
Waning Crescent, 24% of the Moon is Illuminated
Apr 5
Waning Crescent
Apr 10
New
Apr 18
First Quarter
Apr 25
Full
May 2
Last Quarter

Hourly Weather History & Observations

Time (EDT) Temp. Windchill Dew Point Humidity Pressure Visibility Wind Dir Wind Speed Gust Speed Precip Events Conditions
12:53 AM 44.1 °F 39.5 °F 24.1 °F 45% 29.97 in 10.0 mi WNW 8.1 mph - N/A   Mostly Cloudy
1:53 AM 41.0 °F 37.1 °F 26.1 °F 55% 29.98 in 10.0 mi NNW 5.8 mph - N/A   Partly Cloudy
2:53 AM 37.0 °F 29.8 °F 26.1 °F 65% 29.99 in 10.0 mi North 10.4 mph - N/A   Clear
3:53 AM 37.0 °F 28.5 °F 27.0 °F 67% 30.02 in 10.0 mi NNE 13.8 mph - N/A   Clear
4:53 AM 36.0 °F 28.0 °F 25.0 °F 64% 30.05 in 10.0 mi NNE 11.5 mph - N/A   Clear
5:53 AM 33.1 °F 27.7 °F 24.1 °F 70% 30.09 in 10.0 mi NNE 5.8 mph - N/A   Clear
6:53 AM 32.0 °F 27.5 °F 23.0 °F 69% 30.12 in 10.0 mi NNE 4.6 mph - N/A   Clear
7:53 AM 34.0 °F 26.6 °F 21.9 °F 61% 30.16 in 10.0 mi NNE 9.2 mph - N/A   Clear
8:53 AM 36.0 °F 29.6 °F 21.0 °F 55% 30.18 in 10.0 mi NNE 8.1 mph - N/A   Clear
9:53 AM 39.0 °F 32.3 °F 16.0 °F 39% 30.19 in 10.0 mi NNE 10.4 mph - N/A   Clear
10:53 AM 39.9 °F 32.5 °F 16.0 °F 38% 30.20 in 10.0 mi North 12.7 mph 20.7 mph N/A   Clear
11:53 AM 43.0 °F 37.7 °F 16.0 °F 34% 30.20 in 10.0 mi North 9.2 mph - N/A   Partly Cloudy
12:53 PM 45.0 °F 38.5 °F 15.1 °F 30% 30.19 in 10.0 mi NNW 13.8 mph - N/A   Partly Cloudy
1:53 PM 46.9 °F - 16.0 °F 29% 30.18 in 10.0 mi NNW 10.4 mph 17.3 mph N/A   Partly Cloudy
2:53 PM 46.9 °F - 15.1 °F 28% 30.17 in 10.0 mi West 4.6 mph - N/A   Partly Cloudy
3:53 PM 48.0 °F - 15.1 °F 27% 30.14 in 10.0 mi Variable 4.6 mph - N/A   Partly Cloudy
4:53 PM 48.9 °F - 15.1 °F 26% 30.14 in 10.0 mi NNW 4.6 mph - N/A   Partly Cloudy
5:53 PM 50.0 °F - 15.1 °F 25% 30.14 in 10.0 mi West 8.1 mph - N/A   Mostly Cloudy
6:53 PM 46.9 °F - 21.9 °F 37% 30.16 in 10.0 mi West 16.1 mph - N/A   Mostly Cloudy
7:53 PM 42.1 °F 35.2 °F 24.1 °F 49% 30.17 in 10.0 mi WSW 12.7 mph - N/A   Scattered Clouds
8:53 PM 37.9 °F 31.5 °F 25.0 °F 60% 30.19 in 10.0 mi WSW 9.2 mph - N/A   Mostly Cloudy
9:53 PM 39.9 °F 35.1 °F 25.0 °F 55% 30.21 in 10.0 mi WNW 6.9 mph - N/A   Overcast
10:53 PM 39.0 °F 33.4 °F 24.1 °F 55% 30.21 in 10.0 mi NE 8.1 mph - N/A   Overcast
11:53 PM 39.0 °F 34.0 °F 15.1 °F 38% 30.20 in 10.0 mi ENE 6.9 mph - N/A   Overcast